Other Public Products
Issued by NWS Grand Forks, ND

Home | Current Version | Previous Version | Graphics & Text | Print | Product List | Glossary On
Versions: 1 2 3 4 5 6 7 8 9 10 11 12 13 14 15 16 17 18 19 20 21 22 23 24 25 26 27 28 29 30 31 32 33 34 35 36 37 38 39 40 41 42 43 44 45 46 47 48 49 50
238
FPUS83 KFGF 171331
OPUFGF
PRAIRIE TO PINES WEATHER ROUNDUP
NATIONAL WEATHER SERVICE EASTERN NORTH DAKOTA/GRAND FORKS ND
700 AM CST WED JAN 17 2018

 **SATELLITE DATA USED TO AUGMENT SKY COVER AT AUTOMATED STATIONS**
 *****  WEATHER ACROSS EASTERN NORTH DAKOTA  *****

CITY           SKY/WX    TMP DP  RH WIND       PRES   REMARKS
GRAND FORKS    FAIR       6   0  76 S15       30.03F WCI -12
GRND FORKS AFB FAIR       8  -1  69 S12       30.01F WCI  -8
GRND FORKS NWS   N/A      7 N/A N/A S10         N/A  WCI  -8
BUXTON           N/A      7   5  94 S12         N/A  WCI  -9
DEVILS LAKE    FAIR      12   3  67 SW14      29.99F WCI  -3
FARGO          FAIR       6  -1  73 S18       30.13F WCI -13
WAHPETON ARPT  FAIR       3  -4  72 S10       30.19F WCI -12
$$

 *****  WEATHER ACROSS CENTRAL AND WESTERN NORTH DAKOTA  *****

CITY           SKY/WX    TMP DP  RH WIND       PRES   REMARKS
JAMESTOWN      FAIR       7   1  76 S8        30.06F WCI  -6
BISMARCK       FAIR      -1  -6  79 CALM      30.12F
MINOT          FAIR      21  10  62 SW22      29.99S WCI   5
MINOT AFB      FAIR      20  12  68 W20       29.97R WCI   5
GARRISON         N/A     10   2  69 CALM      30.06S
WILLISTON      FAIR      10   3  73 S9        30.11R WCI  -3
DICKINSON      FAIR      22  12  65 W18       30.09R WCI   7
HETTINGER      FAIR      18   8  65 W14       30.16R WCI   4
$$

 *****  OTHER OBSERVATIONS NORTHEAST NORTH DAKOTA  *****

CITY           SKY/WX    TMP DP  RH WIND       PRES   REMARKS
WALHALLA       FAIR      18   3  53 S7        29.89F WCI   8
LANGDON        FAIR       5   1  85 SW17      29.92F WCI -14
CAVALIER         N/A     14   3  62 SW8       29.93F WCI   3
GRAFTON        FAIR       7   0  72 S14       30.00F WCI -10
CANDO          FAIR       9   1  72 W8        29.99S WCI  -4
FORT TOTTEN      N/A     13   1  60 SW9       29.95S WCI   1
ROLLA          FAIR      14   5  67 S9        29.91F WCI   2
RUGBY          FAIR       7   0  72 SW14      29.98F WCI -10
 ***** THE ABOVE OBSERVATIONS ARE NON NWS ARE NOT QUALITY
        CONTROLLED AND MAY MIS-REPORT RAIN FOR SNOW...
$$

 *****  OTHER OBSERVATIONS SOUTHEAST NORTH DAKOTA *****

CITY           SKY/WX    TMP DP  RH WIND       PRES   REMARKS
COOPERSTOWN    FAIR       7   1  78 SW14      30.04F WCI -10
VALLEY CITY    FLURRIES   5   0  78 SW18      30.08F WCI -15
OAKES            N/A      3  -2  78 S23       30.15F WCI -19
GWINNER          N/A      7   0  72 SW22      30.14F WCI -14
SHEYENNE NWR     N/A      7  -1  70 SW12      29.95S WCI  -8
BUFFALO          N/A      6  -2  68 E15         N/A  WCI -12
WYNDMERE       NOT AVBL
 ***** THE ABOVE OBSERVATIONS ARE NON NWS ARE NOT QUALITY
       CONTROLLED AND MAY MIS-REPORT RAIN FOR SNOW...
$$

  *****  WEATHER ACROSS NORTHERN MINNESOTA  *****

CITY           SKY/WX    TMP DP  RH WIND       PRES   REMARKS
FLAG ISLAND    FAIR       7   0  72 S10       29.88F WCI  -8
WARROAD        FAIR       9   1  72 SW16G24   29.91F WCI  -9
ROSEAU         FAIR       9   1  72 SW14      29.94F WCI  -8
HALLOCK        FAIR       5   1  85 S23       29.96F WCI -17
THF RVR FALLS  FLURRIES   5  -1  76 SW21G26   30.03F WCI -16
HALSTAD        NOT AVBL
FOSSTON        FAIR       3  -2  78 S18       30.06F WCI -17
BAUDETTE       FAIR      11   1  64 SW10      29.94F WCI  -3
WASKISH        FAIR      12   1  62 SW5       29.97F WCI   4
CROOKSTON      FAIR       7   0  72 S21       30.08F WCI -13
$$
  *****  WEATHER ACROSS CENTRAL AND WEST MINNESOTA  *****

CITY           SKY/WX    TMP DP  RH WIND       PRES   REMARKS
BEMIDJI        FAIR      13  -1  54 SW9       30.03F WCI   1
PARK RAPIDS    FAIR       6  -2  69 SW8       30.10F WCI  -7
WADENA         FAIR       7  -2  66 SW8       30.13F WCI  -6
DETROIT LAKES  FAIR       9   0  66 S9        30.11F WCI  -5
MOORHEAD       FAIR       3  -4  72 S17       30.13F WCI -17
FERGUS FALLS   FAIR       1  -2  85 S10       30.22F WCI -14
ELBOW LAKE     FAIR       3  -3  77 S15       30.19F HAZE    WCI -15
MORRIS MN      FAIR       1  -4  78 SE9       30.22F WCI -14
STAPLES        FAIR       3  -2  78 S6        30.15F WCI  -8
WHEATON        FAIR       7  -2  66 S10       30.21F WCI  -8
$$
  *****  WEATHER ELSEWHERE ACROSS MINNESOTA  *****

CITY           SKY/WX    TMP DP  RH WIND       PRES   REMARKS
DULUTH         FAIR       3  -3  76 W15       30.11F WCI -16
INTRNTL FALLS  FAIR      12  -1  56 SW8       29.95F WCI   0
ELY            FAIR       5  -2  72 SW10      30.00F WCI -10
CLOQUET        FAIR       1  -6  71 SW9       30.14F WCI -14
BRAINERD       FAIR       5  -3  69 S12       30.18F WCI -11
HIBBING        FAIR       4  -2  76 VRB7      30.08F WCI  -8
ALEXANDRIA     FAIR       4  -2  76 SW14      30.19F WCI -14
SAINT CLOUD    FAIR       2  -3  80 S8        30.27F WCI -12
MINNEAPOLIS    FAIR       4  -1  80 S6        30.36F WCI  -7
$$

  *****  WEATHER ACROSS SOUTH DAKOTA  *****

CITY           SKY/WX    TMP DP  RH WIND       PRES   REMARKS
SIOUX FALLS    FAIR       8   1  73 S10       30.34F WCI  -6
BROOKINGS      FAIR       3  -2  79 S9        30.29F WCI -12
WATERTOWN      FAIR       4   0  83 S9        30.23F WCI -10
HURON          FAIR       4  -1  80 S9        30.28F WCI -10
SISSETON         N/A     17   1  49 SW7       30.18F WCI   8
ABERDEEN       FAIR       2  -2  83 S10       30.23F WCI -14
MITCHELL       FAIR       4  -1  80 S8        30.31F WCI  -9
PIERRE         FAIR       6   3  87 S5        30.22F WCI  -3
MOBRIDGE       FAIR       5  -1  76 SE8       30.15R WCI  -8
RAPID CITY     FAIR      16   4  59 N12       30.18R WCI   3
$$

  *****  SOME WEATHER IN NEARBY STATES *****

CITY           SKY/WX    TMP DP  RH WIND       PRES   REMARKS
GLASGOW MT     FAIR      -5 -11  75 CALM      30.15S
GREAT FALLS MT FAIR      34  22  61 SW14      30.19F WCI  25
CHEYENNE WY    FAIR      15   1  53 W7        30.21R WCI   5
SCOTTSBLUFF NE FAIR       4   0  83 NW10      30.25R WCI -11
OMAHA NE       FAIR       2  -3  80 SE7       30.56R WCI -11
DES MOINES IA  FAIR      -1  -6  79 SW5       30.55F WCI -11
DAVENPORT IA   FAIR      -1  -6  79 SW9       30.59F WCI -16
CHICAGO IL     FAIR       5   0  79 W7        30.52S WCI  -7
EAU CLAIRE WI  FAIR      -2  -6  83 SW6       30.36F WCI -14
LA CROSSE WI   FAIR       0  -5  79 S8        30.47F WCI -14
$$

  *****  SOME NATIONAL WEATHER *****

CITY           SKY/WX    TMP DP  RH WIND       PRES   REMARKS
LA GUARDIA NY  LGT SNOW  34  32  92 NW12      30.25S FOG
RALEIGH NC     FLURRIES  34  31  88 N7        30.27R
ATLANTA GA     FAIR      16   9  74 NW17      30.34S WCI   0
NEW ORLEANS LA FAIR      20  11  68 N16G24    30.62R WCI   6
OKLAHOMA CITY  FAIR       6   0  76 S3        30.67S
ALBUQUERQUE NM FAIR      19  12  74 CALM      30.37S
SALT LAKE CITY FAIR      32  27  81 CALM      30.37R
LOS ANGELES CA FAIR      55  55 100 CALM      30.12R
BOISE ID       FOG       29  28  96 NW9       30.36R VSB 1/4 WCI  20
SEATTLE WA     CLOUDY    49  37  63 E8        30.00F
$$

*** WEATHER ACROSS MANITOBA...SASKATCHEWAN AND ONTARIO ***
                ***ONTARIO***

CITY           SKY/WX    TMP DP  RH WIND       PRES   REMARKS
GERALDTON      MOCLDY    16   3  57 W14G22    29.76F WCI   1
THUNDER BAY    MOCLDY    19   5  53 W10       29.95F WCI   8
SIOUX LOOKOUT  MOCLDY     9   0  66 SW9       29.82F WCI  -5
TORONTO        PTCLDY     9   5  85 SW6       30.35F WCI  -1
BIG TROUT LK   FLURRIES  14   9  79 NW8       29.66S WCI   3
PICKLE LAKE    MOCLDY     7  -2  66 W13       29.71F WCI  -9
DRYDEN         CLEAR      9   0  66 SW17G23   29.80F WCI -10
KENORA         PTCLDY     5   0  78 SW13G18   29.85F WCI -12
$$
                *** MANITOBA***

CITY           SKY/WX    TMP DP  RH WIND       PRES   REMARKS
BRANDON        CLEAR     10   3  72 W16       29.87F WCI  -7
DAUPHIN        CLEAR     23  14  68 W21       29.76F WCI   8
ISLAND LAKE    PTCLDY     1  -2  85 SW2       29.73S
PILOT MOUND      N/A      7   0  72 SW9         N/A  WCI  -7
THE PAS        CLEAR      7   1  78 W5        29.71S WCI  -2
THOMPSON       LGT SNOW   9   5  85 NE6       29.74R FOG     WCI  -1
WINNIPEG       CLEAR      7   0  72 S15       29.84F WCI -11
LYNN LAKE      LGT SNOW   7   5  92 E5        29.71S VSB 5/8 WCI  -2
CHURCHILL      CRYSTALS   1  -2  85 NE9       29.87R WCI -14
GILLAM         FLURRIES  10   5  79 N10       29.77R WCI  -3
$$
                ***SASKATCHEWAN***

CITY           SKY/WX    TMP DP  RH WIND       PRES   REMARKS
ESTEVAN        CLEAR     14   7  73 SW14      29.96F WCI  -1
KINDERSLEY     MOCLDY    37  32  81 NW21G30   29.92R
LLOYDMINSTER   CLOUDY    30  27  86 W22G31    29.78S WCI  17
PRINCE ALBERT  CLEAR     -6 -11  77 VRB2      29.73F
REGINA         CLEAR     25  18  74 W14       29.87F WCI  13
YORKTON        PTCLDY    16  12  86 SW14      29.78S WC



USA.gov is the U.S. government's official web portal to all federal, state and local government web resources and services.